Time,TemperatureF,DewpointF,PressureIn,WindDirection,WindDirectionDegrees,WindSpeedMPH,WindSpeedGustMPH,Humidity,HourlyPrecipIn,Conditions,Clouds,dailyrainin,SoftwareType,DateUTC
2013-11-14 00:00:00,24.8,-2.9,30.21,West,268,0.0,0.0,29,0.00,,---,0.00,VWS V14.01,2013-11-14 05:00:00,
2013-11-14 00:01:00,24.8,-2.9,30.21,West,268,0.0,0.0,29,0.00,,---,0.00,VWS V14.01,2013-11-14 05:01:00,
2013-11-14 00:06:00,24.8,-2.9,30.21,West,268,0.0,0.0,29,0.00,,---,0.00,VWS V14.01,2013-11-14 05:06:00,
2013-11-14 00:11:00,25.0,-1.4,30.21,West,268,0.0,0.0,31,0.00,,---,0.00,VWS V14.01,2013-11-14 05:11:00,
2013-11-14 00:16:00,25.0,-2.8,30.21,West,268,0.0,0.0,29,0.00,,---,0.00,VWS V14.01,2013-11-14 05:16:00,
2013-11-14 00:21:00,24.6,-1.0,30.21,West,268,0.0,0.0,32,0.00,,---,0.00,VWS V14.01,2013-11-14 05:21:00,
2013-11-14 00:26:00,24.6,-1.0,30.21,West,268,0.0,0.0,32,0.00,,---,0.00,VWS V14.01,2013-11-14 05:26:00,
2013-11-14 00:31:00,24.8,-0.9,30.21,West,268,0.0,0.0,32,0.00,,---,0.00,VWS V14.01,2013-11-14 05:31:00,
2013-11-14 00:36:00,24.6,-1.0,30.21,West,268,0.0,0.0,32,0.00,,---,0.00,VWS V14.01,2013-11-14 05:36:00,
2013-11-14 00:41:00,24.4,-1.2,30.21,West,268,0.0,0.0,32,0.00,,---,0.00,VWS V14.01,2013-11-14 05:41:00,
2013-11-14 00:46:00,24.4,-0.5,30.21,West,268,0.0,0.0,33,0.00,,---,0.00,VWS V14.01,2013-11-14 05:46:00,
2013-11-14 00:51:00,24.6,-0.4,30.21,West,268,0.0,0.0,33,0.00,,---,0.00,VWS V14.01,2013-11-14 05:51:00,
2013-11-14 00:56:00,24.6,-0.4,30.21,West,268,0.0,0.0,33,0.00,,---,0.00,VWS V14.01,2013-11-14 05:56:00,
2013-11-14 01:01:00,24.8,0.4,30.18,West,268,0.0,0.0,34,0.00,,---,0.00,VWS V14.01,2013-11-14 06:01:00,
2013-11-14 01:06:00,25.0,0.6,30.18,West,268,0.0,0.0,34,0.00,,---,0.00,VWS V14.01,2013-11-14 06:06:00,
2013-11-14 01:12:00,25.2,0.8,30.18,West,268,0.0,0.0,34,0.00,,---,0.00,VWS V14.01,2013-11-14 06:12:00,
2013-11-14 01:17:00,25.2,1.4,30.18,West,268,0.0,0.0,35,0.00,,---,0.00,VWS V14.01,2013-11-14 06:17:00,
2013-11-14 01:22:00,25.3,1.5,30.18,West,268,0.0,0.0,35,0.00,,---,0.00,VWS V14.01,2013-11-14 06:22:00,
2013-11-14 01:27:00,25.2,0.8,30.18,West,268,0.0,0.0,34,0.00,,---,0.00,VWS V14.01,2013-11-14 06:27:00,
2013-11-14 01:32:00,25.3,1.5,30.18,West,268,0.0,0.0,35,0.00,,---,0.00,VWS V14.01,2013-11-14 06:32:00,
2013-11-14 01:37:00,25.3,1.5,30.18,West,268,0.0,0.0,35,0.00,,---,0.00,VWS V14.01,2013-11-14 06:37:00,
2013-11-14 01:42:00,25.2,1.4,30.18,West,268,0.0,0.0,35,0.00,,---,0.00,VWS V14.01,2013-11-14 06:42:00,
2013-11-14 01:47:00,25.0,0.6,30.18,West,268,0.0,0.0,34,0.00,,---,0.00,VWS V14.01,2013-11-14 06:47:00,
2013-11-14 01:52:00,25.0,1.2,30.18,West,268,0.0,0.0,35,0.00,,---,0.00,VWS V14.01,2013-11-14 06:52:00,
2013-11-14 01:57:00,25.0,1.2,30.18,West,268,0.0,0.0,35,0.00,,---,0.00,VWS V14.01,2013-11-14 06:57:00,
2013-11-14 02:02:00,25.0,1.2,30.18,West,268,0.0,0.0,35,0.00,,---,0.00,VWS V14.01,2013-11-14 07:02:00,
2013-11-14 02:07:00,25.2,2.0,30.18,West,268,0.0,0.0,36,0.00,,---,0.00,VWS V14.01,2013-11-14 07:07:00,
2013-11-14 02:12:00,25.2,2.0,30.18,West,268,0.0,0.0,36,0.00,,---,0.00,VWS V14.01,2013-11-14 07:12:00,
2013-11-14 02:17:00,25.0,1.8,30.18,West,268,0.0,0.0,36,0.00,,---,0.00,VWS V14.01,2013-11-14 07:17:00,
2013-11-14 02:22:00,25.2,2.0,30.18,West,268,0.0,0.0,36,0.00,,---,0.00,VWS V14.01,2013-11-14 07:22:00,
2013-11-14 02:27:00,25.0,1.8,30.18,West,268,0.0,0.0,36,0.00,,---,0.00,VWS V14.01,2013-11-14 07:27:00,
2013-11-14 02:32:00,25.2,2.0,30.18,West,268,0.0,0.0,36,0.00,,---,0.00,VWS V14.01,2013-11-14 07:32:00,
2013-11-14 02:37:00,25.0,1.8,30.18,West,268,0.0,0.0,36,0.00,,---,0.00,VWS V14.01,2013-11-14 07:37:00,
2013-11-14 02:42:00,24.8,2.8,30.18,West,268,0.0,0.0,38,0.00,,---,0.00,VWS V14.01,2013-11-14 07:42:00,
2013-11-14 02:47:00,24.8,2.8,30.18,West,268,0.0,0.0,38,0.00,,---,0.00,VWS V14.01,2013-11-14 07:47:00,
2013-11-14 02:52:00,25.2,3.1,30.18,West,268,0.0,0.0,38,0.00,,---,0.00,VWS V14.01,2013-11-14 07:52:00,
2013-11-14 02:57:00,25.3,3.3,30.18,West,268,0.0,0.0,38,0.00,,---,0.00,VWS V14.01,2013-11-14 07:57:00,
2013-11-14 03:02:00,25.2,3.7,30.18,West,268,0.0,0.0,39,0.00,,---,0.00,VWS V14.01,2013-11-14 08:02:00,
2013-11-14 03:07:00,25.3,3.9,30.18,West,268,0.0,0.0,39,0.00,,---,0.00,VWS V14.01,2013-11-14 08:07:00,
2013-11-14 03:12:00,25.3,3.9,30.18,West,268,0.0,0.0,39,0.00,,---,0.00,VWS V14.01,2013-11-14 08:12:00,
2013-11-14 03:17:00,25.5,4.0,30.18,West,268,0.0,0.0,39,0.00,,---,0.00,VWS V14.01,2013-11-14 08:17:00,
2013-11-14 03:22:00,25.5,4.6,30.18,West,268,0.0,0.0,40,0.00,,---,0.00,VWS V14.01,2013-11-14 08:22:00,
2013-11-14 03:29:00,25.7,5.3,30.18,West,268,0.0,0.0,41,0.00,,---,0.00,VWS V14.01,2013-11-14 08:29:00,
2013-11-14 03:34:00,25.7,5.3,30.18,West,268,0.0,0.0,41,0.00,,---,0.00,VWS V14.01,2013-11-14 08:34:00,
2013-11-14 03:39:00,25.7,5.3,30.18,West,268,0.0,0.0,41,0.00,,---,0.00,VWS V14.01,2013-11-14 08:39:00,
2013-11-14 03:44:00,25.9,5.4,30.18,West,268,0.0,0.0,41,0.00,,---,0.00,VWS V14.01,2013-11-14 08:44:00,
2013-11-14 03:49:00,26.1,5.6,30.18,West,268,0.0,0.0,41,0.00,,---,0.00,VWS V14.01,2013-11-14 08:49:00,
2013-11-14 03:54:00,26.2,6.3,30.18,West,268,0.0,0.0,42,0.00,,---,0.00,VWS V14.01,2013-11-14 08:54:00,
2013-11-14 03:59:00,26.2,6.3,30.18,West,268,0.0,0.0,42,0.00,,---,0.00,VWS V14.01,2013-11-14 08:59:00,
2013-11-14 04:04:00,26.4,6.4,30.18,West,268,0.0,0.0,42,0.00,,---,0.00,VWS V14.01,2013-11-14 09:04:00,
2013-11-14 04:09:00,26.6,6.6,30.18,West,268,0.0,0.0,42,0.00,,---,0.00,VWS V14.01,2013-11-14 09:09:00,
2013-11-14 04:14:00,26.8,6.8,30.18,West,268,0.0,0.0,42,0.00,,---,0.00,VWS V14.01,2013-11-14 09:14:00,
2013-11-14 04:19:00,26.8,6.2,30.18,West,268,0.0,0.0,41,0.00,,---,0.00,VWS V14.01,2013-11-14 09:19:00,
2013-11-14 04:24:00,27.0,6.4,30.18,West,268,0.0,0.0,41,0.00,,---,0.00,VWS V14.01,2013-11-14 09:24:00,
2013-11-14 04:29:00,27.0,6.4,30.18,WSW,255,0.0,0.0,41,0.00,,---,0.00,VWS V14.01,2013-11-14 09:29:00,
2013-11-14 04:34:00,27.1,6.6,30.18,WSW,255,0.0,0.0,41,0.00,,---,0.00,VWS V14.01,2013-11-14 09:34:00,
2013-11-14 04:39:00,27.1,6.6,30.18,WSW,255,0.0,0.0,41,0.00,,---,0.00,VWS V14.01,2013-11-14 09:39:00,
2013-11-14 04:44:00,27.3,5.6,30.18,WSW,255,0.0,0.0,39,0.00,,---,0.00,VWS V14.01,2013-11-14 09:44:00,
2013-11-14 04:49:00,27.3,4.5,30.18,WNW,295,0.0,0.0,37,0.00,,---,0.00,VWS V14.01,2013-11-14 09:49:00,
2013-11-14 04:54:00,27.3,3.9,30.18,WNW,295,0.0,0.0,36,0.00,,---,0.00,VWS V14.01,2013-11-14 09:54:00,
2013-11-14 04:59:00,27.3,3.9,30.18,WNW,295,0.0,0.0,36,0.00,,---,0.00,VWS V14.01,2013-11-14 09:59:00,
2013-11-14 05:04:00,27.5,4.1,30.18,WNW,295,0.0,0.0,36,0.00,,---,0.00,VWS V14.01,2013-11-14 10:04:00,
2013-11-14 05:09:00,27.5,2.8,30.18,WNW,295,0.0,0.0,34,0.00,,---,0.00,VWS V14.01,2013-11-14 10:09:00,
2013-11-14 05:14:00,27.3,3.3,30.18,WNW,295,0.0,0.0,35,0.00,,---,0.00,VWS V14.01,2013-11-14 10:14:00,
2013-11-14 05:19:00,27.3,3.3,30.18,WNW,295,0.0,0.0,35,0.00,,---,0.00,VWS V14.01,2013-11-14 10:19:00,
2013-11-14 05:24:00,27.1,2.5,30.18,WNW,295,0.0,0.0,34,0.00,,---,0.00,VWS V14.01,2013-11-14 10:24:00,
2013-11-14 05:29:00,27.1,2.5,30.18,WNW,295,0.0,0.0,34,0.00,,---,0.00,VWS V14.01,2013-11-14 10:29:00,
2013-11-14 05:34:00,27.1,1.9,30.18,WNW,295,0.0,0.0,33,0.00,,---,0.00,VWS V14.01,2013-11-14 10:34:00,
2013-11-14 05:39:00,27.1,1.9,30.18,WNW,295,0.0,0.0,33,0.00,,---,0.00,VWS V14.01,2013-11-14 10:39:00,
2013-11-14 05:44:00,27.1,1.9,30.18,WNW,295,0.0,0.0,33,0.00,,---,0.00,VWS V14.01,2013-11-14 10:44:00,
2013-11-14 05:49:00,27.1,2.5,30.18,WNW,295,0.0,0.0,34,0.00,,---,0.00,VWS V14.01,2013-11-14 10:49:00,
2013-11-14 05:54:00,27.1,2.5,30.18,WNW,295,0.0,0.0,34,0.00,,---,0.00,VWS V14.01,2013-11-14 10:54:00,
2013-11-14 05:59:00,27.3,2.7,30.18,WNW,295,0.0,0.0,34,0.00,,---,0.00,VWS V14.01,2013-11-14 10:59:00,
2013-11-14 06:04:00,27.3,2.0,30.18,WNW,295,0.0,0.0,33,0.00,,---,0.00,VWS V14.01,2013-11-14 11:04:00,
2013-11-14 06:09:00,27.1,2.5,30.18,WNW,295,0.0,0.0,34,0.00,,---,0.00,VWS V14.01,2013-11-14 11:09:00,
2013-11-14 06:14:00,27.1,1.9,30.18,WNW,295,0.0,0.0,33,0.00,,---,0.00,VWS V14.01,2013-11-14 11:14:00,
2013-11-14 06:19:00,27.0,1.7,30.18,WNW,295,0.0,0.0,33,0.00,,---,0.00,VWS V14.01,2013-11-14 11:19:00,
2013-11-14 06:24:00,27.0,1.7,30.18,WNW,295,0.0,0.0,33,0.00,,---,0.00,VWS V14.01,2013-11-14 11:24:00,
2013-11-14 06:29:00,26.8,1.5,30.18,WNW,295,0.0,0.0,33,0.00,,---,0.00,VWS V14.01,2013-11-14 11:29:00,
2013-11-14 06:34:00,26.8,1.5,30.18,WNW,295,0.0,0.0,33,0.00,,---,0.00,VWS V14.01,2013-11-14 11:34:00,
2013-11-14 06:39:00,26.8,1.5,30.18,WNW,295,0.0,0.0,33,0.00,,---,0.00,VWS V14.01,2013-11-14 11:39:00,
2013-11-14 06:44:00,27.0,2.3,30.18,WNW,295,0.0,0.0,34,0.00,,---,0.00,VWS V14.01,2013-11-14 11:44:00,
2013-11-14 06:49:00,27.0,1.7,30.18,WNW,295,0.0,0.0,33,0.00,,---,0.00,VWS V14.01,2013-11-14 11:49:00,
2013-11-14 06:54:00,26.6,2.0,30.18,WNW,295,0.0,0.0,34,0.00,,---,0.00,VWS V14.01,2013-11-14 11:54:00,
2013-11-14 06:59:00,26.6,2.0,30.18,WNW,295,0.0,0.0,34,0.00,,---,0.00,VWS V14.01,2013-11-14 11:59:00,
2013-11-14 07:04:00,26.6,2.0,30.18,WNW,295,0.0,0.0,34,0.00,,---,0.00,VWS V14.01,2013-11-14 12:04:00,
2013-11-14 07:09:00,26.6,2.0,30.18,WNW,295,0.0,0.0,34,0.00,,---,0.00,VWS V14.01,2013-11-14 12:09:00,
2013-11-14 07:14:00,26.8,2.2,30.18,WNW,295,0.0,0.0,34,0.00,,---,0.00,VWS V14.01,2013-11-14 12:14:00,
2013-11-14 07:19:00,27.0,2.3,30.18,WNW,295,0.0,0.0,34,0.00,,---,0.00,VWS V14.01,2013-11-14 12:19:00,
2013-11-14 07:24:00,27.0,2.3,30.18,WNW,295,0.0,0.0,34,0.00,,---,0.00,VWS V14.01,2013-11-14 12:24:00,
2013-11-14 07:29:00,27.1,2.5,30.18,WNW,295,0.0,0.0,34,0.00,,---,0.00,VWS V14.01,2013-11-14 12:29:00,
2013-11-14 07:34:00,27.3,2.7,30.18,WNW,295,0.0,0.0,34,0.00,,---,0.00,VWS V14.01,2013-11-14 12:34:00,
2013-11-14 07:39:00,27.7,3.0,30.18,WNW,295,0.0,0.0,34,0.00,,---,0.00,VWS V14.01,2013-11-14 12:39:00,
2013-11-14 07:44:00,27.9,3.2,30.21,WNW,295,0.0,0.0,34,0.00,,---,0.00,VWS V14.01,2013-11-14 12:44:00,
2013-11-14 07:49:00,28.0,3.9,30.21,WNW,295,0.0,0.0,35,0.00,,---,0.00,VWS V14.01,2013-11-14 12:49:00,
2013-11-14 07:54:00,28.4,4.2,30.21,WNW,295,0.0,0.0,35,0.00,,---,0.00,VWS V14.01,2013-11-14 12:54:00,
2013-11-14 07:59:00,28.8,5.2,30.21,WNW,295,0.0,0.0,36,0.00,,---,0.00,VWS V14.01,2013-11-14 12:59:00,
2013-11-14 08:04:00,29.3,6.3,30.21,West,264,0.0,0.0,37,0.00,,---,0.00,VWS V14.01,2013-11-14 13:04:00,
2013-11-14 08:09:00,30.2,8.8,30.21,West,264,0.0,0.0,40,0.00,,---,0.00,VWS V14.01,2013-11-14 13:09:00,
2013-11-14 08:14:00,31.3,9.8,30.21,West,262,0.0,0.0,40,0.00,,---,0.00,VWS V14.01,2013-11-14 13:14:00,
2013-11-14 08:19:00,32.4,10.8,30.21,West,262,0.0,0.0,40,0.00,,---,0.00,VWS V14.01,2013-11-14 13:19:00,
2013-11-14 08:24:00,33.3,8.6,30.21,South,190,0.0,0.0,35,0.00,,---,0.00,VWS V14.01,2013-11-14 13:24:00,
2013-11-14 08:29:00,34.3,7.6,30.21,SSW,196,3.6,3.6,32,0.00,,---,0.00,VWS V14.01,2013-11-14 13:29:00,
2013-11-14 08:34:00,35.4,4.8,30.21,SSW,208,0.0,4.0,27,0.00,,---,0.00,VWS V14.01,2013-11-14 13:34:00,
2013-11-14 08:39:00,36.3,1.1,30.21,SSW,200,0.0,0.0,22,0.00,,---,0.00,VWS V14.01,2013-11-14 13:39:00,
2013-11-14 08:44:00,37.0,-1.4,30.21,WSW,255,2.2,4.0,19,0.00,,---,0.00,VWS V14.01,2013-11-14 13:44:00,
2013-11-14 08:49:00,37.9,-4.2,30.21,SW,225,3.6,3.6,16,0.00,,---,0.00,VWS V14.01,2013-11-14 13:49:00,
2013-11-14 08:54:00,38.5,-3.8,30.21,SW,236,4.0,5.8,16,0.00,,---,0.00,VWS V14.01,2013-11-14 13:54:00,
2013-11-14 08:59:00,39.6,-2.9,30.21,SSW,193,3.1,3.1,16,0.00,,---,0.00,VWS V14.01,2013-11-14 13:59:00,
2013-11-14 09:04:00,40.5,-2.2,30.21,SSW,203,4.9,4.9,16,0.00,,---,0.00,VWS V14.01,2013-11-14 14:04:00,
2013-11-14 09:09:00,41.4,-1.5,30.21,SW,218,2.7,5.4,16,0.00,,---,0.00,VWS V14.01,2013-11-14 14:09:00,
2013-11-14 09:14:00,41.9,-1.0,30.18,West,261,6.3,6.3,16,0.00,,---,0.00,VWS V14.01,2013-11-14 14:14:00,
2013-11-14 09:19:00,42.4,-0.6,30.18,SSE,154,5.4,5.4,16,0.00,,---,0.00,VWS V14.01,2013-11-14 14:19:00,
2013-11-14 09:24:00,43.2,-1.4,30.18,SW,218,2.7,4.0,15,0.00,,---,0.00,VWS V14.01,2013-11-14 14:24:00,
2013-11-14 09:29:00,43.7,-0.9,30.21,West,281,2.7,2.7,15,0.00,,---,0.00,VWS V14.01,2013-11-14 14:29:00,
2013-11-14 09:34:00,44.2,-0.5,30.21,SSW,205,3.6,4.0,15,0.00,,---,0.00,VWS V14.01,2013-11-14 14:34:00,
2013-11-14 09:39:00,45.1,0.3,30.21,SW,220,3.1,6.3,15,0.00,,---,0.00,VWS V14.01,2013-11-14 14:39:00,
2013-11-14 09:44:00,45.9,0.8,30.21,SE,129,5.4,5.4,15,0.00,,---,0.00,VWS V14.01,2013-11-14 14:44:00,
2013-11-14 09:47:00,46.2,1.1,30.21,SSW,200,2.7,3.6,15,0.00,,---,0.00,VWS V14.01,2013-11-14 14:47:00,
2013-11-14 09:52:00,46.4,-0.2,30.21,SW,233,3.1,3.1,14,0.00,,---,0.00,VWS V14.01,2013-11-14 14:52:00,
2013-11-14 09:57:00,46.8,0.1,30.21,West,265,3.1,4.0,14,0.00,,---,0.00,VWS V14.01,2013-11-14 14:57:00,
2013-11-14 10:02:00,46.9,0.2,30.21,SSW,209,3.6,5.4,14,0.00,,---,0.00,VWS V14.01,2013-11-14 15:02:00,
2013-11-14 10:07:00,47.7,0.8,30.21,SSW,208,4.0,4.0,14,0.00,,---,0.00,VWS V14.01,2013-11-14 15:07:00,
2013-11-14 10:12:00,48.0,1.1,30.21,South,176,3.1,3.1,14,0.00,,---,0.00,VWS V14.01,2013-11-14 15:12:00,
2013-11-14 10:17:00,48.2,1.2,30.18,SSE,156,3.6,4.0,14,0.00,,---,0.00,VWS V14.01,2013-11-14 15:17:00,
2013-11-14 10:22:00,48.6,1.5,30.18,SW,233,3.6,3.6,14,0.00,,---,0.00,VWS V14.01,2013-11-14 15:22:00,
2013-11-14 10:27:00,48.9,1.8,30.18,SSW,201,4.0,4.0,14,0.00,,---,0.00,VWS V14.01,2013-11-14 15:27:00,
2013-11-14 10:32:00,49.3,2.1,30.18,SW,221,4.0,4.5,14,0.00,,---,0.00,VWS V14.01,2013-11-14 15:32:00,
2013-11-14 10:37:00,49.5,2.3,30.18,ESE,121,3.6,3.6,14,0.00,,---,0.00,VWS V14.01,2013-11-14 15:37:00,
2013-11-14 10:42:00,49.8,2.5,30.18,South,186,4.0,4.0,14,0.00,,---,0.00,VWS V14.01,2013-11-14 15:42:00,
2013-11-14 10:47:00,50.0,2.7,30.18,SSW,207,5.4,5.4,14,0.00,,---,0.00,VWS V14.01,2013-11-14 15:47:00,
2013-11-14 10:52:00,50.2,2.8,30.18,SW,233,4.9,4.9,14,0.00,,---,0.00,VWS V14.01,2013-11-14 15:52:00,
2013-11-14 10:57:00,50.2,2.8,30.18,SE,142,6.3,6.3,14,0.00,,---,0.00,VWS V14.01,2013-11-14 15:57:00,
2013-11-14 11:02:00,50.4,3.0,30.18,ESE,122,4.0,4.0,14,0.00,,---,0.00,VWS V14.01,2013-11-14 16:02:00,
2013-11-14 11:07:00,50.7,3.3,30.18,SSW,198,5.4,5.4,14,0.00,,---,0.00,VWS V14.01,2013-11-14 16:07:00,
2013-11-14 11:12:00,51.1,3.6,30.18,SSW,198,7.6,7.6,14,0.00,,---,0.00,VWS V14.01,2013-11-14 16:12:00,
2013-11-14 11:17:00,51.3,3.7,30.18,SSE,158,2.7,2.7,14,0.00,,---,0.00,VWS V14.01,2013-11-14 16:17:00,
2013-11-14 11:22:00,51.4,3.8,30.18,South,171,5.4,5.4,14,0.00,,---,0.00,VWS V14.01,2013-11-14 16:22:00,
2013-11-14 11:27:00,52.0,2.7,30.15,NW,308,3.6,3.6,13,0.00,,---,0.00,VWS V14.01,2013-11-14 16:27:00,
2013-11-14 11:32:00,52.5,3.1,30.15,WSW,247,3.1,3.1,13,0.00,,---,0.00,VWS V14.01,2013-11-14 16:32:00,
2013-11-14 11:37:00,53.2,3.7,30.15,SSE,156,5.4,5.4,13,0.00,,---,0.00,VWS V14.01,2013-11-14 16:37:00,
2013-11-14 11:42:00,53.8,4.1,30.15,West,264,3.6,3.6,13,0.00,,---,0.00,VWS V14.01,2013-11-14 16:42:00,
2013-11-14 11:47:00,54.1,4.4,30.15,SW,218,5.8,5.8,13,0.00,,---,0.00,VWS V14.01,2013-11-14 16:47:00,
2013-11-14 11:52:00,54.3,4.5,30.15,WSW,252,5.4,6.3,13,0.00,,---,0.00,VWS V14.01,2013-11-14 16:52:00,
2013-11-14 11:57:00,54.5,4.7,30.15,WSW,243,2.7,3.1,13,0.00,,---,0.00,VWS V14.01,2013-11-14 16:57:00,
2013-11-14 12:02:00,54.5,4.7,30.15,West,271,5.4,5.4,13,0.00,,---,0.00,VWS V14.01,2013-11-14 17:02:00,
2013-11-14 12:07:00,54.7,4.8,30.15,South,185,3.1,3.1,13,0.00,,---,0.00,VWS V14.01,2013-11-14 17:07:00,
2013-11-14 12:12:00,55.0,5.1,30.12,NW,312,2.2,2.2,13,0.00,,---,0.00,VWS V14.01,2013-11-14 17:12:00,
2013-11-14 12:17:00,55.2,5.2,30.12,NW,313,3.1,3.1,13,0.00,,---,0.00,VWS V14.01,2013-11-14 17:17:00,
2013-11-14 12:22:00,56.1,4.2,30.12,SW,230,3.6,3.6,12,0.00,,---,0.00,VWS V14.01,2013-11-14 17:22:00,
2013-11-14 12:27:00,56.7,4.6,30.12,WSW,247,3.6,6.3,12,0.00,,---,0.00,VWS V14.01,2013-11-14 17:27:00,
2013-11-14 12:32:00,56.8,4.8,30.12,SW,229,2.7,4.0,12,0.00,,---,0.00,VWS V14.01,2013-11-14 17:32:00,
2013-11-14 12:37:00,56.8,4.8,30.12,West,260,5.4,5.4,12,0.00,,---,0.00,VWS V14.01,2013-11-14 17:37:00,
2013-11-14 12:42:00,57.2,5.1,30.12,South,181,8.3,8.3,12,0.00,,---,0.00,VWS V14.01,2013-11-14 17:42:00,
2013-11-14 12:47:00,56.8,4.8,30.12,SW,227,4.0,4.0,12,0.00,,---,0.00,VWS V14.01,2013-11-14 17:47:00,
2013-11-14 12:52:00,56.5,4.5,30.12,SW,225,5.4,6.3,12,0.00,,---,0.00,VWS V14.01,2013-11-14 17:52:00,
2013-11-14 12:57:00,56.7,4.6,30.12,SSW,203,7.2,7.2,12,0.00,,---,0.00,VWS V14.01,2013-11-14 17:57:00,
2013-11-14 13:02:00,57.0,4.9,30.12,SE,126,4.0,4.0,12,0.00,,---,0.00,VWS V14.01,2013-11-14 18:02:00,
2013-11-14 13:07:00,56.8,4.8,30.12,SW,214,5.4,6.3,12,0.00,,---,0.00,VWS V14.01,2013-11-14 18:07:00,
2013-11-14 13:12:00,56.8,4.8,30.12,WSW,237,3.1,3.1,12,0.00,,---,0.00,VWS V14.01,2013-11-14 18:12:00,
2013-11-14 13:17:00,56.8,4.8,30.12,ESE,117,4.0,4.0,12,0.00,,---,0.00,VWS V14.01,2013-11-14 18:17:00,
2013-11-14 13:22:00,56.8,4.8,30.12,SSW,192,3.6,5.4,12,0.00,,---,0.00,VWS V14.01,2013-11-14 18:22:00,
2013-11-14 13:27:00,57.4,5.2,30.12,SSW,196,3.6,5.8,12,0.00,,---,0.00,VWS V14.01,2013-11-14 18:27:00,
2013-11-14 13:32:00,57.4,5.2,30.12,SSW,198,3.1,6.3,12,0.00,,---,0.00,VWS V14.01,2013-11-14 18:32:00,
2013-11-14 13:37:00,57.4,5.2,30.12,South,186,6.3,7.6,12,0.00,,---,0.00,VWS V14.01,2013-11-14 18:37:00,
2013-11-14 13:42:00,57.2,5.1,30.12,SW,215,3.1,6.3,12,0.00,,---,0.00,VWS V14.01,2013-11-14 18:42:00,
2013-11-14 13:47:00,57.0,4.9,30.09,East,100,3.6,3.6,12,0.00,,---,0.00,VWS V14.01,2013-11-14 18:47:00,
2013-11-14 13:52:00,56.7,4.6,30.09,SSW,202,4.0,4.0,12,0.00,,---,0.00,VWS V14.01,2013-11-14 18:52:00,
2013-11-14 13:57:00,56.8,4.8,30.09,South,170,4.9,4.9,12,0.00,,---,0.00,VWS V14.01,2013-11-14 18:57:00,
2013-11-14 14:02:00,56.7,4.6,30.09,NW,307,3.6,4.9,12,0.00,,---,0.00,VWS V14.01,2013-11-14 19:02:00,
2013-11-14 14:07:00,56.1,4.2,30.09,WSW,240,0.0,0.0,12,0.00,,---,0.00,VWS V14.01,2013-11-14 19:07:00,
2013-11-14 14:12:00,56.3,4.4,30.09,South,172,4.9,4.9,12,0.00,,---,0.00,VWS V14.01,2013-11-14 19:12:00,
2013-11-14 14:17:00,56.3,4.4,30.09,SSE,167,2.7,3.6,12,0.00,,---,0.00,VWS V14.01,2013-11-14 19:17:00,
2013-11-14 14:22:00,56.3,4.4,30.09,SE,139,3.1,4.0,12,0.00,,---,0.00,VWS V14.01,2013-11-14 19:22:00,
2013-11-14 14:27:00,56.3,4.4,30.09,SE,131,5.8,5.8,12,0.00,,---,0.00,VWS V14.01,2013-11-14 19:27:00,
2013-11-14 14:32:00,56.1,4.2,30.09,SSW,203,5.4,5.8,12,0.00,,---,0.00,VWS V14.01,2013-11-14 19:32:00,
2013-11-14 14:37:00,55.9,4.1,30.09,SW,234,4.0,4.0,12,0.00,,---,0.00,VWS V14.01,2013-11-14 19:37:00,
2013-11-14 14:42:00,55.9,4.1,30.09,SW,218,4.9,6.3,12,0.00,,---,0.00,VWS V14.01,2013-11-14 19:42:00,
2013-11-14 14:47:00,55.9,4.1,30.09,SSW,194,3.1,5.4,12,0.00,,---,0.00,VWS V14.01,2013-11-14 19:47:00,
2013-11-14 14:52:00,55.8,3.9,30.09,South,191,4.9,4.9,12,0.00,,---,0.00,VWS V14.01,2013-11-14 19:52:00,
2013-11-14 14:57:00,55.8,3.9,30.09,SE,135,3.6,3.6,12,0.00,,---,0.00,VWS V14.01,2013-11-14 19:57:00,
2013-11-14 15:02:00,55.6,3.8,30.09,SSW,193,2.7,3.1,12,0.00,,---,0.00,VWS V14.01,2013-11-14 20:02:00,
2013-11-14 15:07:00,55.4,3.7,30.09,SSW,192,3.1,4.9,12,0.00,,---,0.00,VWS V14.01,2013-11-14 20:07:00,
2013-11-14 15:12:00,55.4,3.7,30.09,SE,146,6.3,6.3,12,0.00,,---,0.00,VWS V14.01,2013-11-14 20:12:00,
2013-11-14 15:17:00,55.2,5.2,30.09,SE,141,3.1,5.4,13,0.00,,---,0.00,VWS V14.01,2013-11-14 20:17:00,
2013-11-14 15:22:00,55.0,5.1,30.09,South,190,3.1,3.1,13,0.00,,---,0.00,VWS V14.01,2013-11-14 20:22:00,
2013-11-14 15:27:00,54.9,5.0,30.09,South,180,3.6,4.0,13,0.00,,---,0.00,VWS V14.01,2013-11-14 20:27:00,
2013-11-14 15:32:00,54.9,5.0,30.09,SE,130,7.6,7.6,13,0.00,,---,0.00,VWS V14.01,2013-11-14 20:32:00,
2013-11-14 15:37:00,54.7,4.8,30.09,SW,231,3.6,4.9,13,0.00,,---,0.00,VWS V14.01,2013-11-14 20:37:00,
2013-11-14 15:42:00,54.5,4.7,30.09,SSE,161,3.6,5.4,13,0.00,,---,0.00,VWS V14.01,2013-11-14 20:42:00,
2013-11-14 15:47:00,54.3,4.5,30.09,ESE,122,4.0,4.0,13,0.00,,---,0.00,VWS V14.01,2013-11-14 20:47:00,
2013-11-14 15:52:00,53.8,4.1,30.09,South,172,0.0,2.7,13,0.00,,---,0.00,VWS V14.01,2013-11-14 20:52:00,
2013-11-14 15:57:00,53.6,4.0,30.09,South,187,3.6,3.6,13,0.00,,---,0.00,VWS V14.01,2013-11-14 20:57:00,
2013-11-14 16:02:00,53.4,3.8,30.09,South,175,3.6,3.6,13,0.00,,---,0.00,VWS V14.01,2013-11-14 21:02:00,
2013-11-14 16:07:00,53.1,3.5,30.09,South,185,2.7,2.7,13,0.00,,---,0.00,VWS V14.01,2013-11-14 21:07:00,
2013-11-14 16:12:00,52.9,3.4,30.09,SW,229,0.0,0.0,13,0.00,,---,0.00,VWS V14.01,2013-11-14 21:12:00,
2013-11-14 16:17:00,52.5,3.1,30.09,SSE,152,2.2,2.7,13,0.00,,---,0.00,VWS V14.01,2013-11-14 21:17:00,
2013-11-14 16:22:00,52.0,2.7,30.09,SSE,158,0.0,3.1,13,0.00,,---,0.00,VWS V14.01,2013-11-14 21:22:00,
2013-11-14 16:27:00,51.4,3.8,30.09,South,173,3.1,4.0,14,0.00,,---,0.00,VWS V14.01,2013-11-14 21:27:00,
2013-11-14 16:32:00,50.9,3.4,30.09,SSE,152,0.0,0.0,14,0.00,,---,0.00,VWS V14.01,2013-11-14 21:32:00,
2013-11-14 16:37:00,50.5,3.1,30.09,SSE,164,0.0,0.0,14,0.00,,---,0.00,VWS V14.01,2013-11-14 21:37:00,
2013-11-14 16:42:00,50.2,2.8,30.09,SSE,164,2.2,3.1,14,0.00,,---,0.00,VWS V14.01,2013-11-14 21:42:00,
2013-11-14 16:47:00,49.6,2.4,30.09,SSE,164,0.0,0.0,14,0.00,,---,0.00,VWS V14.01,2013-11-14 21:47:00,
2013-11-14 16:52:00,49.1,2.0,30.09,SSE,164,0.0,0.0,14,0.00,,---,0.00,VWS V14.01,2013-11-14 21:52:00,
2013-11-14 16:57:00,48.7,1.7,30.09,SSE,164,2.7,2.7,14,0.00,,---,0.00,VWS V14.01,2013-11-14 21:57:00,
2013-11-14 17:02:00,48.7,1.7,30.09,SSE,164,0.0,0.0,14,0.00,,---,0.00,VWS V14.01,2013-11-14 22:02:00,
2013-11-14 17:07:00,48.2,1.2,30.09,SSE,164,0.0,0.0,14,0.00,,---,0.00,VWS V14.01,2013-11-14 22:07:00,
2013-11-14 17:12:00,47.7,0.8,30.12,SSE,164,0.0,0.0,14,0.00,,---,0.00,VWS V14.01,2013-11-14 22:12:00,
2013-11-14 17:17:00,47.1,0.4,30.12,SSE,164,0.0,0.0,14,0.00,,---,0.00,VWS V14.01,2013-11-14 22:17:00,
2013-11-14 17:22:00,46.4,-0.2,30.12,SSE,164,0.0,0.0,14,0.00,,---,0.00,VWS V14.01,2013-11-14 22:22:00,
2013-11-14 17:27:00,46.0,1.0,30.12,SSE,164,0.0,0.0,15,0.00,,---,0.00,VWS V14.01,2013-11-14 22:27:00,
2013-11-14 17:32:00,45.7,0.7,30.12,SSE,164,0.0,0.0,15,0.00,,---,0.00,VWS V14.01,2013-11-14 22:32:00,
2013-11-14 17:37:00,44.8,-4.7,30.12,SSE,164,0.0,0.0,12,0.00,,---,0.00,VWS V14.01,2013-11-14 22:37:00,
2013-11-14 17:42:00,44.4,-3.3,30.12,SSE,164,0.0,0.0,13,0.00,,---,0.00,VWS V14.01,2013-11-14 22:42:00,
2013-11-14 17:47:00,44.1,-3.6,30.09,SSE,164,0.0,0.0,13,0.00,,---,0.00,VWS V14.01,2013-11-14 22:47:00,
2013-11-14 17:52:00,43.3,-4.2,30.09,SSE,164,3.6,3.6,13,0.00,,---,0.00,VWS V14.01,2013-11-14 22:52:00,
2013-11-14 17:57:00,43.0,-4.5,30.09,SSE,164,2.2,3.6,13,0.00,,---,0.00,VWS V14.01,2013-11-14 22:57:00,
2013-11-14 18:02:00,42.8,-4.6,30.09,SSE,164,2.2,2.7,13,0.00,,---,0.00,VWS V14.01,2013-11-14 23:02:00,
2013-11-14 18:07:00,42.8,-4.6,30.09,SE,142,2.7,3.1,13,0.00,,---,0.00,VWS V14.01,2013-11-14 23:07:00,
2013-11-14 18:12:00,43.0,-4.5,30.12,South,169,0.0,0.0,13,0.00,,---,0.00,VWS V14.01,2013-11-14 23:12:00,
2013-11-14 18:17:00,43.0,-4.5,30.12,SSE,160,0.0,2.7,13,0.00,,---,0.00,VWS V14.01,2013-11-14 23:17:00,
2013-11-14 18:22:00,43.2,-4.3,30.12,SSE,160,0.0,0.0,13,0.00,,---,0.00,VWS V14.01,2013-11-14 23:22:00,
2013-11-14 18:27:00,43.3,-1.2,30.12,SSE,157,0.0,0.0,15,0.00,,---,0.00,VWS V14.01,2013-11-14 23:27:00,
2013-11-14 18:32:00,43.5,-1.1,30.12,SSE,157,2.7,2.7,15,0.00,,---,0.00,VWS V14.01,2013-11-14 23:32:00,
2013-11-14 18:37:00,43.7,-0.9,30.12,SSE,157,2.7,3.1,15,0.00,,---,0.00,VWS V14.01,2013-11-14 23:37:00,
2013-11-14 18:42:00,43.7,-0.9,30.12,SSE,159,2.2,3.1,15,0.00,,---,0.00,VWS V14.01,2013-11-14 23:42:00,
2013-11-14 18:47:00,43.7,-0.9,30.12,SSW,195,0.0,2.2,15,0.00,,---,0.00,VWS V14.01,2013-11-14 23:47:00,
2013-11-14 18:52:00,43.5,-1.1,30.12,SSW,195,3.6,3.6,15,0.00,,---,0.00,VWS V14.01,2013-11-14 23:52:00,
2013-11-14 18:57:00,43.3,-1.2,30.12,SSW,195,0.0,2.7,15,0.00,,---,0.00,VWS V14.01,2013-11-14 23:57:00,
2013-11-14 19:02:00,43.3,-1.2,30.12,SSE,157,3.1,3.1,15,0.00,,---,0.00,VWS V14.01,2013-11-15 00:02:00,
2013-11-14 19:07:00,43.3,-1.2,30.12,SSE,157,3.6,3.6,15,0.00,,---,0.00,VWS V14.01,2013-11-15 00:07:00,
2013-11-14 19:13:00,43.3,-1.2,30.12,SSE,153,3.1,3.6,15,0.00,,---,0.00,VWS V14.01,2013-11-15 00:13:00,
2013-11-14 19:18:00,43.2,-1.4,30.12,SSE,153,0.0,0.0,15,0.00,,---,0.00,VWS V14.01,2013-11-15 00:18:00,
2013-11-14 19:23:00,43.2,-1.4,30.12,SSW,193,0.0,2.7,15,0.00,,---,0.00,VWS V14.01,2013-11-15 00:23:00,
2013-11-14 19:28:00,43.0,-1.5,30.12,SSW,193,0.0,0.0,15,0.00,,---,0.00,VWS V14.01,2013-11-15 00:28:00,
2013-11-14 19:33:00,42.8,-1.6,30.12,SSW,193,0.0,0.0,15,0.00,,---,0.00,VWS V14.01,2013-11-15 00:33:00,
2013-11-14 19:38:00,42.8,-1.6,30.12,SSW,193,0.0,0.0,15,0.00,,---,0.00,VWS V14.01,2013-11-15 00:38:00,
2013-11-14 19:43:00,42.6,-0.4,30.12,SSW,193,0.0,0.0,16,0.00,,---,0.00,VWS V14.01,2013-11-15 00:43:00,
2013-11-14 19:48:00,42.3,-0.7,30.12,SSW,193,0.0,0.0,16,0.00,,---,0.00,VWS V14.01,2013-11-15 00:48:00,
2013-11-14 19:53:00,42.4,-0.6,30.12,SSW,193,0.0,0.0,16,0.00,,---,0.00,VWS V14.01,2013-11-15 00:53:00,
2013-11-14 19:58:00,42.3,-0.7,30.12,SSW,193,0.0,0.0,16,0.00,,---,0.00,VWS V14.01,2013-11-15 00:58:00,
2013-11-14 20:03:00,41.9,-1.0,30.12,SSW,193,0.0,0.0,16,0.00,,---,0.00,VWS V14.01,2013-11-15 01:03:00,
2013-11-14 20:08:00,41.5,-1.3,30.12,SSW,193,0.0,0.0,16,0.00,,---,0.00,VWS V14.01,2013-11-15 01:08:00,
2013-11-14 20:13:00,41.2,-1.6,30.12,SSW,193,0.0,0.0,16,0.00,,---,0.00,VWS V14.01,2013-11-15 01:13:00,
2013-11-14 20:18:00,41.0,-1.7,30.12,SSW,193,0.0,0.0,16,0.00,,---,0.00,VWS V14.01,2013-11-15 01:18:00,
2013-11-14 20:23:00,40.8,-1.9,30.12,SSE,160,0.0,0.0,16,0.00,,---,0.00,VWS V14.01,2013-11-15 01:23:00,
2013-11-14 20:28:00,40.6,-2.0,30.12,SSE,160,0.0,0.0,16,0.00,,---,0.00,VWS V14.01,2013-11-15 01:28:00,
2013-11-14 20:33:00,40.6,-2.0,30.12,SSE,160,0.0,0.0,16,0.00,,---,0.00,VWS V14.01,2013-11-15 01:33:00,
2013-11-14 20:38:00,40.6,-2.0,30.12,SE,144,2.2,2.2,16,0.00,,---,0.00,VWS V14.01,2013-11-15 01:38:00,
2013-11-14 20:43:00,40.5,-2.2,30.12,SE,144,0.0,2.2,16,0.00,,---,0.00,VWS V14.01,2013-11-15 01:43:00,
2013-11-14 20:48:00,40.3,-2.3,30.12,SE,144,0.0,0.0,16,0.00,,---,0.00,VWS V14.01,2013-11-15 01:48:00,
2013-11-14 20:53:00,40.3,-2.3,30.12,ESE,115,0.0,0.0,16,0.00,,---,0.00,VWS V14.01,2013-11-15 01:53:00,
2013-11-14 20:58:00,40.1,-2.5,30.12,ESE,115,0.0,0.0,16,0.00,,---,0.00,VWS V14.01,2013-11-15 01:58:00,
2013-11-14 21:03:00,40.1,-2.5,30.12,SSE,150,2.7,2.7,16,0.00,,---,0.00,VWS V14.01,2013-11-15 02:03:00,
2013-11-14 21:08:00,39.9,-2.6,30.12,SSE,152,0.0,0.0,16,0.00,,---,0.00,VWS V14.01,2013-11-15 02:08:00,
2013-11-14 21:13:00,39.7,-2.8,30.12,SSE,152,0.0,0.0,16,0.00,,---,0.00,VWS V14.01,2013-11-15 02:13:00,
2013-11-14 21:18:00,39.6,-2.9,30.12,SSE,152,0.0,0.0,16,0.00,,---,0.00,VWS V14.01,2013-11-15 02:18:00,
2013-11-14 21:23:00,39.4,-3.1,30.12,SSE,151,0.0,0.0,16,0.00,,---,0.00,VWS V14.01,2013-11-15 02:23:00,
2013-11-14 21:28:00,39.2,-3.2,30.12,SSE,152,0.0,0.0,16,0.00,,---,0.00,VWS V14.01,2013-11-15 02:28:00,
2013-11-14 21:33:00,38.8,-3.5,30.12,SSE,151,0.0,0.0,16,0.00,,---,0.00,VWS V14.01,2013-11-15 02:33:00,
2013-11-14 21:38:00,38.5,-3.8,30.12,SSE,152,0.0,0.0,16,0.00,,---,0.00,VWS V14.01,2013-11-15 02:38:00,
2013-11-14 21:43:00,38.3,-4.0,30.12,SSE,152,0.0,0.0,16,0.00,,---,0.00,VWS V14.01,2013-11-15 02:43:00,
2013-11-14 21:48:00,38.1,-0.5,30.12,SSE,152,0.0,0.0,19,0.00,,---,0.00,VWS V14.01,2013-11-15 02:48:00,
2013-11-14 21:53:00,37.9,-0.6,30.12,SSE,151,0.0,0.0,19,0.00,,---,0.00,VWS V14.01,2013-11-15 02:53:00,
2013-11-14 21:58:00,37.6,-0.9,30.12,SSE,151,0.0,0.0,19,0.00,,---,0.00,VWS V14.01,2013-11-15 02:58:00,
2013-11-14 22:03:00,37.4,-1.1,30.12,SSE,152,2.7,2.7,19,0.00,,---,0.00,VWS V14.01,2013-11-15 03:03:00,
2013-11-14 22:08:00,37.2,-1.2,30.12,SSE,147,3.1,4.5,19,0.00,,---,0.00,VWS V14.01,2013-11-15 03:08:00,
2013-11-14 22:13:00,37.0,1.7,30.12,SSE,147,0.0,0.0,22,0.00,,---,0.00,VWS V14.01,2013-11-15 03:13:00,
2013-11-14 22:18:00,37.0,-1.4,30.12,SSE,147,0.0,0.0,19,0.00,,---,0.00,VWS V14.01,2013-11-15 03:18:00,
2013-11-14 22:23:00,37.0,1.7,30.12,SSE,150,0.0,0.0,22,0.00,,---,0.00,VWS V14.01,2013-11-15 03:23:00,
2013-11-14 22:28:00,37.0,1.7,30.12,SSE,150,0.0,0.0,22,0.00,,---,0.00,VWS V14.01,2013-11-15 03:28:00,
2013-11-14 22:33:00,36.9,1.6,30.12,SSE,150,0.0,0.0,22,0.00,,---,0.00,VWS V14.01,2013-11-15 03:33:00,
2013-11-14 22:38:00,36.9,3.5,30.12,SSE,159,0.0,2.2,24,0.00,,---,0.00,VWS V14.01,2013-11-15 03:38:00,
2013-11-14 22:43:00,36.9,3.5,30.12,SSE,159,0.0,0.0,24,0.00,,---,0.00,VWS V14.01,2013-11-15 03:43:00,
2013-11-14 22:48:00,36.9,6.0,30.12,SSE,159,0.0,0.0,27,0.00,,---,0.00,VWS V14.01,2013-11-15 03:48:00,
2013-11-14 22:53:00,36.7,5.9,30.12,SSE,159,0.0,0.0,27,0.00,,---,0.00,VWS V14.01,2013-11-15 03:53:00,
2013-11-14 22:58:00,36.3,5.6,30.12,SSE,159,0.0,0.0,27,0.00,,---,0.00,VWS V14.01,2013-11-15 03:58:00,
2013-11-14 23:03:00,36.3,5.6,30.12,SSE,159,0.0,0.0,27,0.00,,---,0.00,VWS V14.01,2013-11-15 04:03:00,
2013-11-14 23:08:00,36.3,5.6,30.12,SSE,159,0.0,0.0,27,0.00,,---,0.00,VWS V14.01,2013-11-15 04:08:00,
2013-11-14 23:13:00,36.1,7.0,30.09,SSE,159,0.0,0.0,29,0.00,,---,0.00,VWS V14.01,2013-11-15 04:13:00,
2013-11-14 23:18:00,36.1,7.7,30.09,SSE,159,0.0,0.0,30,0.00,,---,0.00,VWS V14.01,2013-11-15 04:18:00,
2013-11-14 23:23:00,36.3,7.9,30.09,SSE,159,0.0,0.0,30,0.00,,---,0.00,VWS V14.01,2013-11-15 04:23:00,
2013-11-14 23:28:00,36.1,8.4,30.09,SSE,155,0.0,0.0,31,0.00,,---,0.00,VWS V14.01,2013-11-15 04:28:00,
2013-11-14 23:33:00,36.0,8.3,30.09,SSE,155,0.0,0.0,31,0.00,,---,0.00,VWS V14.01,2013-11-15 04:33:00,
2013-11-14 23:38:00,35.8,8.8,30.09,SSE,155,0.0,0.0,32,0.00,,---,0.00,VWS V14.01,2013-11-15 04:38:00,
2013-11-14 23:43:00,35.8,10.2,30.09,SSE,155,2.2,2.7,34,0.00,,---,0.00,VWS V14.01,2013-11-15 04:43:00,
2013-11-14 23:48:00,35.6,9.4,30.09,SSE,157,0.0,0.0,33,0.00,,---,0.00,VWS V14.01,2013-11-15 04:48:00,
2013-11-14 23:53:00,35.4,9.2,30.09,SSE,157,0.0,0.0,33,0.00,,---,0.00,VWS V14.01,2013-11-15 04:53:00,
2013-11-14 23:58:00,35.2,9.0,30.09,SSE,157,0.0,0.0,33,0.00,,---,0.00,VWS V14.01,2013-11-15 04:58:00,